Time,TemperatureF,DewpointF,PressureIn,WindDirection,WindDirectionDegrees,WindSpeedMPH,WindSpeedGustMPH,Humidity,HourlyPrecipIn,Conditions,Clouds,dailyrainin,SoftwareType,DateUTC
2013-12-21 00:02:00,10.2,6.3,29.88,NNW,340,0.0,0.0,84,0.00,,,0.00,Wunderground v.1.15,2013-12-21 06:02:00,
2013-12-21 00:07:00,10.0,6.1,29.89,NNW,340,0.0,0.0,84,0.00,,,0.00,Wunderground v.1.15,2013-12-21 06:07:00,
2013-12-21 00:13:00,10.2,6.3,29.89,NNW,337,3.0,4.0,84,0.00,,,0.00,Wunderground v.1.15,2013-12-21 06:13:00,
2013-12-21 00:18:00,10.2,6.3,29.88,NNW,337,2.0,4.0,84,0.00,,,0.00,Wunderground v.1.15,2013-12-21 06:18:00,
2013-12-21 00:24:00,10.2,6.3,29.88,NNW,337,0.0,1.0,84,0.00,,,0.00,Wunderground v.1.15,2013-12-21 06:24:00,
2013-12-21 00:29:00,9.9,6.0,29.88,NNW,337,0.0,1.0,84,0.00,,,0.00,Wunderground v.1.15,2013-12-21 06:29:00,
2013-12-21 00:34:00,9.9,6.0,29.86,NNW,337,0.0,1.0,84,0.00,,,0.00,Wunderground v.1.15,2013-12-21 06:34:00,
2013-12-21 00:39:00,10.0,6.1,29.86,NNW,337,0.0,1.0,84,0.00,,,0.00,Wunderground v.1.15,2013-12-21 06:39:00,
2013-12-21 00:45:00,10.0,6.1,29.86,NNW,337,0.0,0.0,84,0.00,,,0.00,Wunderground v.1.15,2013-12-21 06:45:00,
2013-12-21 00:50:00,9.9,6.0,29.86,NNW,337,0.0,0.0,84,0.00,,,0.00,Wunderground v.1.15,2013-12-21 06:50:00,
2013-12-21 00:55:00,10.0,6.1,29.86,NNW,337,0.0,0.0,84,0.00,,,0.00,Wunderground v.1.15,2013-12-21 06:55:00,
2013-12-21 01:00:00,9.9,6.0,29.86,NNW,337,0.0,0.0,84,0.00,,,0.00,Wunderground v.1.15,2013-12-21 07:00:00,
2013-12-21 01:05:00,9.9,6.0,29.87,NNW,337,0.0,0.0,84,0.00,,,0.00,Wunderground v.1.15,2013-12-21 07:05:00,
2013-12-21 01:11:00,9.9,6.0,29.87,NNW,337,0.0,0.0,84,0.00,,,0.00,Wunderground v.1.15,2013-12-21 07:11:00,
2013-12-21 01:16:00,9.7,5.8,29.87,NNW,337,0.0,0.0,84,0.00,,,0.00,Wunderground v.1.15,2013-12-21 07:16:00,
2013-12-21 01:21:00,9.7,5.8,29.87,NNW,337,0.0,0.0,84,0.00,,,0.00,Wunderground v.1.15,2013-12-21 07:21:00,
2013-12-21 01:27:00,9.7,6.1,29.87,NNW,337,0.0,0.0,85,0.00,,,0.00,Wunderground v.1.15,2013-12-21 07:27:00,
2013-12-21 01:33:00,9.9,6.3,29.88,NNW,337,0.0,0.0,85,0.00,,,0.00,Wunderground v.1.15,2013-12-21 07:33:00,
2013-12-21 01:38:00,9.9,6.0,29.88,NNW,337,0.0,0.0,84,0.00,,,0.00,Wunderground v.1.15,2013-12-21 07:38:00,
2013-12-21 01:43:00,9.7,5.8,29.88,NNW,337,0.0,0.0,84,0.00,,,0.00,Wunderground v.1.15,2013-12-21 07:43:00,
2013-12-21 01:49:00,9.7,5.8,29.88,NNW,337,0.0,0.0,84,0.00,,,0.00,Wunderground v.1.15,2013-12-21 07:49:00,
2013-12-21 01:54:00,9.9,6.3,29.88,NNW,337,0.0,0.0,85,0.00,,,0.00,Wunderground v.1.15,2013-12-21 07:54:00,
2013-12-21 02:00:00,10.0,6.4,29.88,NNW,337,0.0,0.0,85,0.00,,,0.00,Wunderground v.1.15,2013-12-21 08:00:00,
2013-12-21 02:05:00,10.0,6.4,29.86,NNW,337,0.0,0.0,85,0.00,,,0.00,Wunderground v.1.15,2013-12-21 08:05:00,
2013-12-21 02:10:00,10.2,6.6,29.86,NNW,337,0.0,0.0,85,0.00,,,0.00,Wunderground v.1.15,2013-12-21 08:10:00,
2013-12-21 02:15:00,10.4,6.8,29.86,NNW,337,0.0,0.0,85,0.00,,,0.00,Wunderground v.1.15,2013-12-21 08:15:00,
2013-12-21 02:20:00,10.5,6.9,29.86,NNW,337,0.0,0.0,85,0.00,,,0.00,Wunderground v.1.15,2013-12-21 08:20:00,
2013-12-21 02:25:00,10.5,6.9,29.86,NNW,337,0.0,0.0,85,0.00,,,0.00,Wunderground v.1.15,2013-12-21 08:25:00,
2013-12-21 02:30:00,10.5,6.9,29.86,NNW,337,0.0,0.0,85,0.00,,,0.00,Wunderground v.1.15,2013-12-21 08:30:00,
2013-12-21 02:35:00,10.5,6.9,29.87,NNW,337,0.0,0.0,85,0.00,,,0.00,Wunderground v.1.15,2013-12-21 08:35:00,
2013-12-21 02:40:00,10.7,7.1,29.87,NNW,337,0.0,0.0,85,0.00,,,0.00,Wunderground v.1.15,2013-12-21 08:40:00,
2013-12-21 02:45:00,10.7,7.1,29.87,NNW,337,0.0,0.0,85,0.00,,,0.00,Wunderground v.1.15,2013-12-21 08:45:00,
2013-12-21 02:50:00,10.9,7.3,29.87,NNW,337,0.0,0.0,85,0.00,,,0.00,Wunderground v.1.15,2013-12-21 08:50:00,
2013-12-21 02:55:00,10.9,7.3,29.87,NNW,337,0.0,0.0,85,0.00,,,0.00,Wunderground v.1.15,2013-12-21 08:55:00,
2013-12-21 03:01:00,11.1,7.5,29.87,NNW,337,0.0,0.0,85,0.00,,,0.00,Wunderground v.1.15,2013-12-21 09:01:00,
2013-12-21 03:06:00,11.4,8.0,29.87,NNW,337,0.0,0.0,86,0.00,,,0.00,Wunderground v.1.15,2013-12-21 09:06:00,
2013-12-21 03:11:00,11.4,8.0,29.87,NNW,337,0.0,0.0,86,0.00,,,0.00,Wunderground v.1.15,2013-12-21 09:11:00,
2013-12-21 03:16:00,11.6,8.2,29.87,NNW,337,0.0,0.0,86,0.00,,,0.00,Wunderground v.1.15,2013-12-21 09:16:00,
2013-12-21 03:21:00,11.7,8.3,29.86,NNW,337,0.0,0.0,86,0.00,,,0.00,Wunderground v.1.15,2013-12-21 09:21:00,
2013-12-21 03:26:00,11.6,8.2,29.86,NNW,337,0.0,0.0,86,0.00,,,0.00,Wunderground v.1.15,2013-12-21 09:26:00,
2013-12-21 03:31:00,11.6,8.2,29.86,NNW,337,0.0,0.0,86,0.00,,,0.00,Wunderground v.1.15,2013-12-21 09:31:00,
2013-12-21 03:36:00,11.6,8.2,29.85,NNW,337,0.0,0.0,86,0.00,,,0.00,Wunderground v.1.15,2013-12-21 09:36:00,
2013-12-21 03:41:00,11.4,7.8,29.85,NNW,337,0.0,0.0,85,0.00,,,0.00,Wunderground v.1.15,2013-12-21 09:41:00,
2013-12-21 03:46:00,11.4,7.8,29.85,NNW,337,0.0,0.0,85,0.00,,,0.00,Wunderground v.1.15,2013-12-21 09:46:00,
2013-12-21 03:51:00,11.4,8.0,29.85,NNW,337,0.0,0.0,86,0.00,,,0.00,Wunderground v.1.15,2013-12-21 09:51:00,
2013-12-21 03:56:00,11.4,7.8,29.85,NNW,337,0.0,0.0,85,0.00,,,0.00,Wunderground v.1.15,2013-12-21 09:56:00,
2013-12-21 04:01:00,11.4,8.0,29.85,NNW,337,0.0,0.0,86,0.00,,,0.00,Wunderground v.1.15,2013-12-21 10:01:00,
2013-12-21 04:06:00,11.4,7.8,29.85,NNW,337,0.0,0.0,85,0.00,,,0.00,Wunderground v.1.15,2013-12-21 10:06:00,
2013-12-21 04:11:00,11.4,8.0,29.85,NNW,337,0.0,0.0,86,0.00,,,0.00,Wunderground v.1.15,2013-12-21 10:11:00,
2013-12-21 04:16:00,11.6,8.2,29.85,NNW,337,0.0,0.0,86,0.00,,,0.00,Wunderground v.1.15,2013-12-21 10:16:00,
2013-12-21 04:21:00,11.6,8.0,29.84,NNW,337,0.0,0.0,85,0.00,,,0.00,Wunderground v.1.15,2013-12-21 10:21:00,
2013-12-21 04:26:00,11.4,7.8,29.84,NNW,337,0.0,0.0,85,0.00,,,0.00,Wunderground v.1.15,2013-12-21 10:26:00,
2013-12-21 04:31:00,11.6,8.2,29.84,NNW,337,4.0,5.0,86,0.00,,,0.00,Wunderground v.1.15,2013-12-21 10:31:00,
2013-12-21 04:36:00,11.4,7.8,29.85,NNW,344,5.0,6.0,85,0.00,,,0.00,Wunderground v.1.15,2013-12-21 10:36:00,
2013-12-21 04:41:00,11.4,7.8,29.85,NE,37,4.0,5.0,85,0.00,,,0.00,Wunderground v.1.15,2013-12-21 10:41:00,
2013-12-21 04:46:00,11.4,8.0,29.85,NNE,32,6.0,7.0,86,0.00,,,0.00,Wunderground v.1.15,2013-12-21 10:46:00,
2013-12-21 04:51:00,11.2,7.8,29.84,NNE,13,6.0,6.0,86,0.00,,,0.00,Wunderground v.1.15,2013-12-21 10:51:00,
2013-12-21 04:56:00,11.1,7.5,29.84,NNE,12,1.0,9.0,85,0.00,,,0.00,Wunderground v.1.15,2013-12-21 10:56:00,
2013-12-21 05:01:00,11.1,7.5,29.84,NNE,12,4.0,4.0,85,0.00,,,0.00,Wunderground v.1.15,2013-12-21 11:01:00,
2013-12-21 05:06:00,11.1,7.5,29.84,NNE,17,5.0,7.0,85,0.00,,,0.00,Wunderground v.1.15,2013-12-21 11:06:00,
2013-12-21 05:11:00,11.1,7.5,29.84,NNE,24,5.0,5.0,85,0.00,,,0.00,Wunderground v.1.15,2013-12-21 11:11:00,
2013-12-21 05:16:00,11.1,7.5,29.84,NNE,32,0.0,7.0,85,0.00,,,0.00,Wunderground v.1.15,2013-12-21 11:16:00,
2013-12-21 05:21:00,11.1,7.5,29.84,NNE,15,7.0,7.0,85,0.00,,,0.00,Wunderground v.1.15,2013-12-21 11:21:00,
2013-12-21 05:26:00,10.9,7.3,29.84,NNE,16,3.0,9.0,85,0.00,,,0.00,Wunderground v.1.15,2013-12-21 11:26:00,
2013-12-21 05:32:00,10.9,7.3,29.84,NNE,17,0.0,4.0,85,0.00,,,0.00,Wunderground v.1.15,2013-12-21 11:32:00,
2013-12-21 05:37:00,11.1,7.5,29.84,NNE,18,0.0,4.0,85,0.00,,,0.00,Wunderground v.1.15,2013-12-21 11:37:00,
2013-12-21 05:42:00,11.1,7.5,29.84,NNE,18,0.0,0.0,85,0.00,,,0.00,Wunderground v.1.15,2013-12-21 11:42:00,
2013-12-21 05:47:00,11.1,7.5,29.84,NNE,24,0.0,0.0,85,0.00,,,0.00,Wunderground v.1.15,2013-12-21 11:47:00,
2013-12-21 05:52:00,11.1,7.5,29.85,NNE,24,0.0,0.0,85,0.00,,,0.00,Wunderground v.1.15,2013-12-21 11:52:00,
2013-12-21 05:57:00,11.1,7.5,29.85,NNE,22,0.0,7.0,85,0.00,,,0.00,Wunderground v.1.15,2013-12-21 11:57:00,
2013-12-21 06:02:00,11.1,7.5,29.85,NNE,23,0.0,3.0,85,0.00,,,0.00,Wunderground v.1.15,2013-12-21 12:02:00,
2013-12-21 06:07:00,11.2,7.6,29.86,NNE,23,0.0,5.0,85,0.00,,,0.00,Wunderground v.1.15,2013-12-21 12:07:00,
2013-12-21 06:12:00,11.2,7.6,29.86,NNE,23,0.0,1.0,85,0.00,,,0.00,Wunderground v.1.15,2013-12-21 12:12:00,
2013-12-21 06:17:00,11.4,7.8,29.86,NNE,24,0.0,2.0,85,0.00,,,0.00,Wunderground v.1.15,2013-12-21 12:17:00,
2013-12-21 06:22:00,11.4,7.8,29.86,NNE,24,0.0,0.0,85,0.00,,,0.00,Wunderground v.1.15,2013-12-21 12:22:00,
2013-12-21 06:27:00,11.4,7.8,29.86,NNE,24,0.0,0.0,85,0.00,,,0.00,Wunderground v.1.15,2013-12-21 12:27:00,
2013-12-21 06:32:00,11.6,8.0,29.86,East,95,0.0,0.0,85,0.00,,,0.00,Wunderground v.1.15,2013-12-21 12:32:00,
2013-12-21 06:37:00,11.6,8.0,29.86,East,95,0.0,0.0,85,0.00,,,0.00,Wunderground v.1.15,2013-12-21 12:37:00,
2013-12-21 06:42:00,11.7,8.1,29.86,East,93,0.0,0.0,85,0.00,,,0.00,Wunderground v.1.15,2013-12-21 12:42:00,
2013-12-21 06:47:00,11.7,8.1,29.86,NE,49,3.0,5.0,85,0.00,,,0.00,Wunderground v.1.15,2013-12-21 12:47:00,
2013-12-21 06:52:00,11.7,8.1,29.86,NE,50,0.0,1.0,85,0.00,,,0.00,Wunderground v.1.15,2013-12-21 12:52:00,
2013-12-21 06:57:00,11.7,7.8,29.86,NE,50,0.0,3.0,84,0.00,,,0.00,Wunderground v.1.15,2013-12-21 12:57:00,
2013-12-21 07:02:00,11.7,7.8,29.86,NE,50,0.0,3.0,84,0.00,,,0.00,Wunderground v.1.15,2013-12-21 13:02:00,
2013-12-21 07:07:00,11.6,7.7,29.86,NE,50,0.0,4.0,84,0.00,,,0.00,Wunderground v.1.15,2013-12-21 13:07:00,
2013-12-21 07:12:00,11.6,7.7,29.86,NE,50,0.0,0.0,84,0.00,,,0.00,Wunderground v.1.15,2013-12-21 13:12:00,
2013-12-21 07:17:00,11.7,7.8,29.86,NE,50,0.0,2.0,84,0.00,,,0.00,Wunderground v.1.15,2013-12-21 13:17:00,
2013-12-21 07:22:00,11.7,7.8,29.86,NE,50,0.0,0.0,84,0.00,,,0.00,Wunderground v.1.15,2013-12-21 13:22:00,
2013-12-21 07:28:00,11.7,7.8,29.86,NE,48,0.0,5.0,84,0.00,,,0.00,Wunderground v.1.15,2013-12-21 13:28:00,
2013-12-21 07:33:00,11.7,7.8,29.89,NE,48,0.0,0.0,84,0.00,,,0.00,Wunderground v.1.15,2013-12-21 13:33:00,
2013-12-21 07:38:00,11.9,8.0,29.89,NE,48,0.0,0.0,84,0.00,,,0.00,Wunderground v.1.15,2013-12-21 13:38:00,
2013-12-21 07:43:00,11.9,8.0,29.89,North,11,5.0,6.0,84,0.00,,,0.00,Wunderground v.1.15,2013-12-21 13:43:00,
2013-12-21 07:48:00,11.9,8.0,29.88,ENE,60,0.0,6.0,84,0.00,,,0.00,Wunderground v.1.15,2013-12-21 13:48:00,
2013-12-21 07:53:00,11.9,8.0,29.88,ENE,60,0.0,2.0,84,0.00,,,0.00,Wunderground v.1.15,2013-12-21 13:53:00,
2013-12-21 07:58:00,11.9,7.7,29.88,NNE,30,0.0,5.0,83,0.00,,,0.00,Wunderground v.1.15,2013-12-21 13:58:00,
2013-12-21 08:03:00,11.9,7.7,29.89,NNE,32,0.0,4.0,83,0.00,,,0.00,Wunderground v.1.15,2013-12-21 14:03:00,
2013-12-21 08:08:00,11.9,7.7,29.89,NNE,28,6.0,6.0,83,0.00,,,0.00,Wunderground v.1.15,2013-12-21 14:08:00,
2013-12-21 08:13:00,11.9,7.7,29.89,NNE,28,2.0,5.0,83,0.00,,,0.00,Wunderground v.1.15,2013-12-21 14:13:00,
2013-12-21 08:18:00,11.7,7.5,29.89,NNE,28,0.0,5.0,83,0.00,,,0.00,Wunderground v.1.15,2013-12-21 14:18:00,
2013-12-21 08:23:00,11.7,7.5,29.89,ENE,61,0.0,4.0,83,0.00,,,0.00,Wunderground v.1.15,2013-12-21 14:23:00,
2013-12-21 08:28:00,11.7,7.5,29.89,ENE,61,0.0,4.0,83,0.00,,,0.00,Wunderground v.1.15,2013-12-21 14:28:00,
2013-12-21 08:33:00,11.9,8.0,29.89,ENE,61,0.0,1.0,84,0.00,,,0.00,Wunderground v.1.15,2013-12-21 14:33:00,
2013-12-21 08:38:00,11.9,8.0,29.89,ENE,61,0.0,3.0,84,0.00,,,0.00,Wunderground v.1.15,2013-12-21 14:38:00,
2013-12-21 08:43:00,12.1,8.2,29.89,East,86,4.0,6.0,84,0.00,,,0.00,Wunderground v.1.15,2013-12-21 14:43:00,
2013-12-21 08:48:00,12.1,8.2,29.89,East,98,0.0,6.0,84,0.00,,,0.00,Wunderground v.1.15,2013-12-21 14:48:00,
2013-12-21 08:53:00,12.3,8.4,29.89,ENE,74,2.0,4.0,84,0.00,,,0.00,Wunderground v.1.15,2013-12-21 14:53:00,
2013-12-21 08:58:00,12.3,8.4,29.89,East,85,2.0,7.0,84,0.00,,,0.00,Wunderground v.1.15,2013-12-21 14:58:00,
2013-12-21 09:03:00,12.3,8.7,29.90,East,93,4.0,7.0,85,0.00,,,0.00,Wunderground v.1.15,2013-12-21 15:03:00,
2013-12-21 09:08:00,12.4,8.7,29.90,East,87,0.0,7.0,85,0.00,,,0.00,Wunderground v.1.15,2013-12-21 15:08:00,
2013-12-21 09:13:00,12.6,8.9,29.90,East,87,0.0,3.0,85,0.00,,,0.00,Wunderground v.1.15,2013-12-21 15:13:00,
2013-12-21 09:18:00,12.8,9.1,29.91,East,86,0.0,5.0,85,0.00,,,0.00,Wunderground v.1.15,2013-12-21 15:18:00,
2013-12-21 09:23:00,12.9,9.5,29.91,ENE,57,6.0,9.0,86,0.00,,,0.00,Wunderground v.1.15,2013-12-21 15:23:00,
2013-12-21 09:28:00,12.9,9.5,29.91,ENE,76,0.0,9.0,86,0.00,,,0.00,Wunderground v.1.15,2013-12-21 15:28:00,
2013-12-21 09:34:00,13.1,9.7,29.89,NE,53,0.0,6.0,86,0.00,,,0.00,Wunderground v.1.15,2013-12-21 15:34:00,
2013-12-21 09:39:00,13.3,10.2,29.89,ENE,59,0.0,7.0,87,0.00,,,0.00,Wunderground v.1.15,2013-12-21 15:39:00,
2013-12-21 09:44:00,13.5,10.4,29.89,East,90,4.0,6.0,87,0.00,,,0.00,Wunderground v.1.15,2013-12-21 15:44:00,
2013-12-21 09:49:00,13.8,10.6,29.90,ENE,77,0.0,6.0,87,0.00,,,0.00,Wunderground v.1.15,2013-12-21 15:49:00,
2013-12-21 09:54:00,14.1,10.9,29.90,East,94,4.0,7.0,87,0.00,,,0.00,Wunderground v.1.15,2013-12-21 15:54:00,
2013-12-21 09:59:00,14.3,11.1,29.90,ENE,74,2.0,9.0,87,0.00,,,0.00,Wunderground v.1.15,2013-12-21 15:59:00,
2013-12-21 10:04:00,14.3,11.1,29.92,East,82,6.0,9.0,87,0.00,,,0.00,Wunderground v.1.15,2013-12-21 16:04:00,
2013-12-21 10:09:00,14.3,11.4,29.92,East,100,0.0,9.0,88,0.00,,,0.00,Wunderground v.1.15,2013-12-21 16:09:00,
2013-12-21 10:14:00,14.4,11.5,29.92,ENE,78,4.0,7.0,88,0.00,,,0.00,Wunderground v.1.15,2013-12-21 16:14:00,
2013-12-21 10:19:00,14.6,11.7,29.94,East,85,3.0,7.0,88,0.00,,,0.00,Wunderground v.1.15,2013-12-21 16:19:00,
2013-12-21 10:24:00,14.8,11.9,29.94,East,80,1.0,5.0,88,0.00,,,0.00,Wunderground v.1.15,2013-12-21 16:24:00,
2013-12-21 10:29:00,14.9,12.0,29.94,NE,50,0.0,5.0,88,0.00,,,0.00,Wunderground v.1.15,2013-12-21 16:29:00,
2013-12-21 10:34:00,14.9,12.0,29.90,NNE,15,0.0,7.0,88,0.00,,,0.00,Wunderground v.1.15,2013-12-21 16:34:00,
2013-12-21 10:39:00,15.2,12.3,29.90,NNE,13,6.0,7.0,88,0.00,,,0.00,Wunderground v.1.15,2013-12-21 16:39:00,
2013-12-21 10:44:00,15.2,12.3,29.90,NE,55,0.0,5.0,88,0.00,,,0.00,Wunderground v.1.15,2013-12-21 16:44:00,
2013-12-21 10:49:00,15.2,12.3,29.90,NNE,22,6.0,8.0,88,0.00,,,0.00,Wunderground v.1.15,2013-12-21 16:49:00,
2013-12-21 10:54:00,15.2,12.3,29.90,North,9,6.0,7.0,88,0.00,,,0.00,Wunderground v.1.15,2013-12-21 16:54:00,
2013-12-21 10:59:00,15.2,12.3,29.90,NE,52,0.0,7.0,88,0.00,,,0.00,Wunderground v.1.15,2013-12-21 16:59:00,
2013-12-21 11:04:00,15.2,12.3,29.90,NE,51,5.0,7.0,88,0.00,,,0.00,Wunderground v.1.15,2013-12-21 17:04:00,
2013-12-21 11:10:00,15.1,12.2,29.90,NNE,22,7.0,7.0,88,0.00,,,0.00,Wunderground v.1.15,2013-12-21 17:10:00,
2013-12-21 11:15:00,14.9,12.0,29.90,NNE,16,9.0,10.0,88,0.00,,,0.00,Wunderground v.1.15,2013-12-21 17:15:00,
2013-12-21 11:20:00,15.2,12.3,29.89,NNE,21,0.0,5.0,88,0.00,,,0.00,Wunderground v.1.15,2013-12-21 17:20:00,
2013-12-21 11:25:00,15.4,12.5,29.89,ENE,68,2.0,9.0,88,0.00,,,0.00,Wunderground v.1.15,2013-12-21 17:25:00,
2013-12-21 11:30:00,15.7,12.8,29.89,NNE,33,1.0,1.0,88,0.00,,,0.00,Wunderground v.1.15,2013-12-21 17:30:00,
2013-12-21 11:35:00,15.9,13.0,29.90,NNE,33,0.0,5.0,88,0.00,,,0.00,Wunderground v.1.15,2013-12-21 17:35:00,
2013-12-21 11:40:00,16.1,13.2,29.90,NNE,19,2.0,3.0,88,0.00,,,0.00,Wunderground v.1.15,2013-12-21 17:40:00,
2013-12-21 11:45:00,16.2,13.3,29.90,ENE,76,3.0,3.0,88,0.00,,,0.00,Wunderground v.1.15,2013-12-21 17:45:00,
2013-12-21 11:50:00,16.1,13.2,29.92,NE,47,0.0,1.0,88,0.00,,,0.00,Wunderground v.1.15,2013-12-21 17:50:00,
2013-12-21 11:55:00,16.1,13.2,29.92,ENE,59,5.0,5.0,88,0.00,,,0.00,Wunderground v.1.15,2013-12-21 17:55:00,
2013-12-21 12:00:00,16.2,13.3,29.92,ENE,71,0.0,2.0,88,0.00,,,0.00,Wunderground v.1.15,2013-12-21 18:00:00,
2013-12-21 12:05:00,16.4,13.5,29.92,East,83,0.0,5.0,88,0.00,,,0.00,Wunderground v.1.15,2013-12-21 18:05:00,
2013-12-21 12:10:00,16.5,13.6,29.92,East,86,0.0,1.0,88,0.00,,,0.00,Wunderground v.1.15,2013-12-21 18:10:00,
2013-12-21 12:15:00,16.4,13.2,29.92,NE,34,0.0,7.0,87,0.00,,,0.00,Wunderground v.1.15,2013-12-21 18:15:00,
2013-12-21 12:20:00,16.5,13.3,29.92,NE,39,4.0,4.0,87,0.00,,,0.00,Wunderground v.1.15,2013-12-21 18:20:00,
2013-12-21 12:25:00,16.5,13.6,29.92,ENE,57,0.0,5.0,88,0.00,,,0.00,Wunderground v.1.15,2013-12-21 18:25:00,
2013-12-21 12:30:00,16.5,13.3,29.92,ENE,65,1.0,2.0,87,0.00,,,0.00,Wunderground v.1.15,2013-12-21 18:30:00,
2013-12-21 12:35:00,16.7,13.5,29.91,East,79,0.0,4.0,87,0.00,,,0.00,Wunderground v.1.15,2013-12-21 18:35:00,
2013-12-21 12:40:00,16.9,13.7,29.91,NE,54,0.0,1.0,87,0.00,,,0.00,Wunderground v.1.15,2013-12-21 18:40:00,
2013-12-21 12:45:00,17.0,13.8,29.91,NE,54,1.0,5.0,87,0.00,,,0.00,Wunderground v.1.15,2013-12-21 18:45:00,
2013-12-21 12:50:00,17.2,14.0,29.90,East,92,0.0,2.0,87,0.00,,,0.00,Wunderground v.1.15,2013-12-21 18:50:00,
2013-12-21 12:56:00,17.3,14.1,29.90,East,92,0.0,3.0,87,0.00,,,0.00,Wunderground v.1.15,2013-12-21 18:56:00,
2013-12-21 13:01:00,17.7,14.8,29.90,East,84,1.0,2.0,88,0.00,,,0.00,Wunderground v.1.15,2013-12-21 19:01:00,
2013-12-21 13:06:00,17.7,14.8,29.90,East,83,0.0,4.0,88,0.00,,,0.00,Wunderground v.1.15,2013-12-21 19:06:00,
2013-12-21 13:11:00,17.8,14.8,29.90,NNE,32,0.0,5.0,88,0.00,,,0.00,Wunderground v.1.15,2013-12-21 19:11:00,
2013-12-21 13:16:00,17.8,14.8,29.90,NE,46,0.0,6.0,88,0.00,,,0.00,Wunderground v.1.15,2013-12-21 19:16:00,
2013-12-21 13:21:00,17.8,14.8,29.89,NNE,28,5.0,7.0,88,0.00,,,0.00,Wunderground v.1.15,2013-12-21 19:21:00,
2013-12-21 13:26:00,17.8,15.1,29.89,NNE,22,8.0,9.0,89,0.00,,,0.00,Wunderground v.1.15,2013-12-21 19:26:00,
2013-12-21 13:31:00,18.0,15.3,29.89,North,360,9.0,10.0,89,0.00,,,0.00,Wunderground v.1.15,2013-12-21 19:31:00,
2013-12-21 13:36:00,18.0,15.6,29.89,NE,38,0.0,10.0,90,0.00,,,0.00,Wunderground v.1.15,2013-12-21 19:36:00,
2013-12-21 13:41:00,18.1,15.7,29.89,NNE,15,5.0,6.0,90,0.00,,,0.00,Wunderground v.1.15,2013-12-21 19:41:00,
2013-12-21 13:46:00,18.0,15.6,29.89,North,9,7.0,7.0,90,0.00,,,0.00,Wunderground v.1.15,2013-12-21 19:46:00,
2013-12-21 13:51:00,18.0,15.6,29.88,NNE,28,9.0,10.0,90,0.00,,,0.00,Wunderground v.1.15,2013-12-21 19:51:00,
2013-12-21 13:56:00,18.3,15.9,29.88,North,360,4.0,10.0,90,0.00,,,0.00,Wunderground v.1.15,2013-12-21 19:56:00,
2013-12-21 14:01:00,18.1,15.7,29.88,NNE,30,6.0,9.0,90,0.00,,,0.00,Wunderground v.1.15,2013-12-21 20:01:00,
2013-12-21 14:06:00,18.3,15.9,29.86,NNE,29,10.0,11.0,90,0.00,,,0.00,Wunderground v.1.15,2013-12-21 20:06:00,
2013-12-21 14:11:00,18.3,15.9,29.86,NNE,26,8.0,11.0,90,0.00,,,0.00,Wunderground v.1.15,2013-12-21 20:11:00,
2013-12-21 14:16:00,18.3,15.9,29.86,NNE,15,7.0,11.0,90,0.00,,,0.00,Wunderground v.1.15,2013-12-21 20:16:00,
2013-12-21 14:21:00,18.4,16.0,29.86,NNE,22,3.0,7.0,90,0.00,,,0.00,Wunderground v.1.15,2013-12-21 20:21:00,
2013-12-21 14:26:00,18.3,15.9,29.86,North,360,9.0,13.0,90,0.00,,,0.00,Wunderground v.1.15,2013-12-21 20:26:00,
2013-12-21 14:31:00,18.1,15.7,29.86,NNE,15,7.0,11.0,90,0.00,,,0.00,Wunderground v.1.15,2013-12-21 20:31:00,
2013-12-21 14:36:00,18.1,15.4,29.87,North,11,9.0,13.0,89,0.00,,,0.00,Wunderground v.1.15,2013-12-21 20:36:00,
2013-12-21 14:41:00,18.1,15.4,29.87,NNE,21,8.0,12.0,89,0.00,,,0.00,Wunderground v.1.15,2013-12-21 20:41:00,
2013-12-21 14:46:00,18.0,15.3,29.87,North,10,5.0,12.0,89,0.00,,,0.00,Wunderground v.1.15,2013-12-21 20:46:00,
2013-12-21 14:51:00,18.1,15.1,29.89,North,360,5.0,13.0,88,0.00,,,0.00,Wunderground v.1.15,2013-12-21 20:51:00,
2013-12-21 14:57:00,18.1,14.9,29.89,North,360,11.0,13.0,87,0.00,,,0.00,Wunderground v.1.15,2013-12-21 20:57:00,
2013-12-21 15:02:00,18.1,14.9,29.89,NNE,14,6.0,11.0,87,0.00,,,0.00,Wunderground v.1.15,2013-12-21 21:02:00,
2013-12-21 15:07:00,18.3,14.8,29.89,NNE,17,5.0,13.0,86,0.00,,,0.00,Wunderground v.1.15,2013-12-21 21:07:00,
2013-12-21 15:12:00,18.3,14.8,29.89,NNE,14,7.0,14.0,86,0.00,,,0.00,Wunderground v.1.15,2013-12-21 21:12:00,
2013-12-21 15:17:00,18.3,14.8,29.89,North,11,9.0,14.0,86,0.00,,,0.00,Wunderground v.1.15,2013-12-21 21:17:00,
2013-12-21 15:22:00,18.3,14.5,29.89,NNE,26,9.0,12.0,85,0.00,,,0.00,Wunderground v.1.15,2013-12-21 21:22:00,
2013-12-21 15:27:00,18.1,14.4,29.89,NNE,15,4.0,13.0,85,0.00,,,0.00,Wunderground v.1.15,2013-12-21 21:27:00,
2013-12-21 15:32:00,18.3,14.5,29.89,NNE,26,10.0,12.0,85,0.00,,,0.00,Wunderground v.1.15,2013-12-21 21:32:00,
2013-12-21 15:37:00,18.1,14.4,29.89,NNE,28,6.0,12.0,85,0.00,,,0.00,Wunderground v.1.15,2013-12-21 21:37:00,
2013-12-21 15:42:00,18.3,14.5,29.89,NNE,22,10.0,11.0,85,0.00,,,0.00,Wunderground v.1.15,2013-12-21 21:42:00,
2013-12-21 15:47:00,18.1,14.4,29.89,NE,34,10.0,11.0,85,0.00,,,0.00,Wunderground v.1.15,2013-12-21 21:47:00,
2013-12-21 15:52:00,18.1,14.4,29.90,NE,49,6.0,11.0,85,0.00,,,0.00,Wunderground v.1.15,2013-12-21 21:52:00,
2013-12-21 15:57:00,18.0,14.3,29.90,NE,38,5.0,11.0,85,0.00,,,0.00,Wunderground v.1.15,2013-12-21 21:57:00,
2013-12-21 16:02:00,17.8,14.1,29.90,NE,38,9.0,14.0,85,0.00,,,0.00,Wunderground v.1.15,2013-12-21 22:02:00,
2013-12-21 16:07:00,17.8,14.1,29.91,NNE,19,10.0,15.0,85,0.00,,,0.00,Wunderground v.1.15,2013-12-21 22:07:00,
2013-12-21 16:12:00,17.8,14.1,29.91,NNE,24,10.0,14.0,85,0.00,,,0.00,Wunderground v.1.15,2013-12-21 22:12:00,
2013-12-21 16:17:00,17.7,14.0,29.91,NNE,32,8.0,14.0,85,0.00,,,0.00,Wunderground v.1.15,2013-12-21 22:17:00,
2013-12-21 16:22:00,17.7,14.0,29.90,North,9,11.0,15.0,85,0.00,,,0.00,Wunderground v.1.15,2013-12-21 22:22:00,
2013-12-21 16:27:00,17.7,14.0,29.90,NNE,27,15.0,19.0,85,0.00,,,0.00,Wunderground v.1.15,2013-12-21 22:27:00,
2013-12-21 16:32:00,17.5,13.8,29.90,NE,51,10.0,14.0,85,0.00,,,0.00,Wunderground v.1.15,2013-12-21 22:32:00,
2013-12-21 16:37:00,17.5,13.8,29.91,North,360,9.0,14.0,85,0.00,,,0.00,Wunderground v.1.15,2013-12-21 22:37:00,
2013-12-21 16:42:00,17.5,13.8,29.91,North,360,9.0,16.0,85,0.00,,,0.00,Wunderground v.1.15,2013-12-21 22:42:00,
2013-12-21 16:47:00,17.5,13.8,29.91,NNE,17,6.0,16.0,85,0.00,,,0.00,Wunderground v.1.15,2013-12-21 22:47:00,
2013-12-21 16:52:00,17.3,13.6,29.91,NE,37,13.0,17.0,85,0.00,,,0.00,Wunderground v.1.15,2013-12-21 22:52:00,
2013-12-21 16:57:00,17.3,13.6,29.91,NNE,16,10.0,17.0,85,0.00,,,0.00,Wunderground v.1.15,2013-12-21 22:57:00,
2013-12-21 17:02:00,17.3,13.6,29.91,NNE,29,6.0,13.0,85,0.00,,,0.00,Wunderground v.1.15,2013-12-21 23:02:00,
2013-12-21 17:07:00,17.2,13.5,29.90,NNE,33,11.0,15.0,85,0.00,,,0.00,Wunderground v.1.15,2013-12-21 23:07:00,
2013-12-21 17:12:00,17.2,13.5,29.90,North,351,11.0,13.0,85,0.00,,,0.00,Wunderground v.1.15,2013-12-21 23:12:00,
2013-12-21 17:17:00,17.0,13.5,29.90,North,11,6.0,13.0,86,0.00,,,0.00,Wunderground v.1.15,2013-12-21 23:17:00,
2013-12-21 17:22:00,17.0,13.5,29.92,North,360,9.0,19.0,86,0.00,,,0.00,Wunderground v.1.15,2013-12-21 23:22:00,
2013-12-21 17:27:00,16.9,13.4,29.92,NNE,27,7.0,19.0,86,0.00,,,0.00,Wunderground v.1.15,2013-12-21 23:27:00,
2013-12-21 17:33:00,16.9,13.4,29.92,NNE,29,11.0,13.0,86,0.00,,,0.00,Wunderground v.1.15,2013-12-21 23:33:00,
2013-12-21 17:38:00,16.9,13.7,29.92,North,11,10.0,14.0,87,0.00,,,0.00,Wunderground v.1.15,2013-12-21 23:38:00,
2013-12-21 17:43:00,16.9,13.7,29.92,NNE,14,15.0,16.0,87,0.00,,,0.00,Wunderground v.1.15,2013-12-21 23:43:00,
2013-12-21 17:48:00,16.9,13.7,29.93,North,360,8.0,18.0,87,0.00,,,0.00,Wunderground v.1.15,2013-12-21 23:48:00,
2013-12-21 17:53:00,16.9,13.7,29.93,North,360,9.0,12.0,87,0.00,,,0.00,Wunderground v.1.15,2013-12-21 23:53:00,
2013-12-21 17:58:00,16.9,13.7,29.93,NNE,24,7.0,14.0,87,0.00,,,0.00,Wunderground v.1.15,2013-12-21 23:58:00,
2013-12-21 18:03:00,16.9,13.7,29.93,NNE,12,10.0,14.0,87,0.00,,,0.00,Wunderground v.1.15,2013-12-22 00:03:00,
2013-12-21 18:08:00,16.7,13.5,29.93,North,11,10.0,16.0,87,0.00,,,0.00,Wunderground v.1.15,2013-12-22 00:08:00,
2013-12-21 18:13:00,16.5,13.3,29.93,NNE,19,12.0,19.0,87,0.00,,,0.00,Wunderground v.1.15,2013-12-22 00:13:00,
2013-12-21 18:18:00,16.5,13.3,29.93,North,5,10.0,19.0,87,0.00,,,0.00,Wunderground v.1.15,2013-12-22 00:18:00,
2013-12-21 18:23:00,16.5,13.3,29.93,North,10,13.0,17.0,87,0.00,,,0.00,Wunderground v.1.15,2013-12-22 00:23:00,
2013-12-21 18:28:00,16.5,13.3,29.93,North,360,12.0,17.0,87,0.00,,,0.00,Wunderground v.1.15,2013-12-22 00:28:00,
2013-12-21 18:33:00,16.4,13.5,29.92,NNE,15,15.0,18.0,88,0.00,,,0.00,Wunderground v.1.15,2013-12-22 00:33:00,
2013-12-21 18:38:00,16.4,13.5,29.92,North,360,9.0,18.0,88,0.00,,,0.00,Wunderground v.1.15,2013-12-22 00:38:00,
2013-12-21 18:43:00,16.2,13.3,29.92,NNE,21,17.0,19.0,88,0.00,,,0.00,Wunderground v.1.15,2013-12-22 00:43:00,
2013-12-21 18:49:00,16.2,13.3,29.92,North,360,9.0,21.0,88,0.00,,,0.00,Wunderground v.1.15,2013-12-22 00:49:00,
2013-12-21 18:54:00,16.2,13.0,29.92,NNW,347,9.0,19.0,87,0.00,,,0.00,Wunderground v.1.15,2013-12-22 00:54:00,
2013-12-21 18:59:00,16.2,13.0,29.92,NNE,15,10.0,19.0,87,0.00,,,0.00,Wunderground v.1.15,2013-12-22 00:59:00,
2013-12-21 19:04:00,16.2,13.3,29.92,North,11,11.0,16.0,88,0.00,,,0.00,Wunderground v.1.15,2013-12-22 01:04:00,
2013-12-21 19:09:00,16.2,13.3,29.92,North,360,10.0,16.0,88,0.00,,,0.00,Wunderground v.1.15,2013-12-22 01:09:00,
2013-12-21 19:14:00,16.1,12.9,29.92,NNE,15,11.0,17.0,87,0.00,,,0.00,Wunderground v.1.15,2013-12-22 01:14:00,
2013-12-21 19:19:00,16.1,12.9,29.93,North,360,9.0,17.0,87,0.00,,,0.00,Wunderground v.1.15,2013-12-22 01:19:00,
2013-12-21 19:24:00,16.1,12.9,29.93,North,360,10.0,17.0,87,0.00,,,0.00,Wunderground v.1.15,2013-12-22 01:24:00,
2013-12-21 19:29:00,15.9,12.7,29.93,NNE,13,18.0,20.0,87,0.00,,,0.00,Wunderground v.1.15,2013-12-22 01:29:00,
2013-12-21 19:34:00,15.9,12.7,29.92,North,360,9.0,15.0,87,0.00,,,0.00,Wunderground v.1.15,2013-12-22 01:34:00,
2013-12-21 19:39:00,15.9,12.7,29.92,North,360,12.0,16.0,87,0.00,,,0.00,Wunderground v.1.15,2013-12-22 01:39:00,
2013-12-21 19:44:00,15.9,12.7,29.92,NNE,22,13.0,18.0,87,0.00,,,0.00,Wunderground v.1.15,2013-12-22 01:44:00,
2013-12-21 19:49:00,15.9,12.7,29.91,NNE,17,14.0,18.0,87,0.00,,,0.00,Wunderground v.1.15,2013-12-22 01:49:00,
2013-12-21 19:54:00,15.9,12.7,29.91,NNE,17,14.0,19.0,87,0.00,,,0.00,Wunderground v.1.15,2013-12-22 01:54:00,
2013-12-21 19:59:00,15.7,12.5,29.91,NE,38,11.0,20.0,87,0.00,,,0.00,Wunderground v.1.15,2013-12-22 01:59:00,
2013-12-21 20:04:00,15.7,12.5,29.91,North,360,9.0,18.0,87,0.00,,,0.00,Wunderground v.1.15,2013-12-22 02:04:00,
2013-12-21 20:09:00,15.7,12.8,29.91,NNE,19,5.0,18.0,88,0.00,,,0.00,Wunderground v.1.15,2013-12-22 02:09:00,
2013-12-21 20:14:00,15.7,12.8,29.91,North,360,14.0,17.0,88,0.00,,,0.00,Wunderground v.1.15,2013-12-22 02:14:00,
2013-12-21 20:19:00,15.6,12.7,29.90,NNE,22,15.0,19.0,88,0.00,,,0.00,Wunderground v.1.15,2013-12-22 02:19:00,
2013-12-21 20:24:00,15.6,12.7,29.90,NNE,17,11.0,20.0,88,0.00,,,0.00,Wunderground v.1.15,2013-12-22 02:24:00,
2013-12-21 20:29:00,15.6,12.7,29.90,North,350,9.0,20.0,88,0.00,,,0.00,Wunderground v.1.15,2013-12-22 02:29:00,
2013-12-21 20:34:00,15.6,12.7,29.90,NNE,20,10.0,15.0,88,0.00,,,0.00,Wunderground v.1.15,2013-12-22 02:34:00,
2013-12-21 20:39:00,15.4,12.5,29.90,North,360,17.0,18.0,88,0.00,,,0.00,Wunderground v.1.15,2013-12-22 02:39:00,
2013-12-21 20:44:00,15.4,12.5,29.90,NNE,17,7.0,16.0,88,0.00,,,0.00,Wunderground v.1.15,2013-12-22 02:44:00,
2013-12-21 20:49:00,15.4,12.5,29.90,North,9,12.0,16.0,88,0.00,,,0.00,Wunderground v.1.15,2013-12-22 02:49:00,
2013-12-21 20:54:00,15.4,12.5,29.90,NE,35,11.0,17.0,88,0.00,,,0.00,Wunderground v.1.15,2013-12-22 02:54:00,
2013-12-21 20:59:00,15.2,12.3,29.90,North,360,12.0,18.0,88,0.00,,,0.00,Wunderground v.1.15,2013-12-22 02:59:00,
2013-12-21 21:04:00,15.2,12.3,29.91,NNW,347,14.0,16.0,88,0.00,,,0.00,Wunderground v.1.15,2013-12-22 03:04:00,
2013-12-21 21:09:00,15.1,12.7,29.91,NNE,24,12.0,18.0,90,0.00,,,0.00,Wunderground v.1.15,2013-12-22 03:09:00,
2013-12-21 21:14:00,15.1,12.2,29.91,North,360,12.0,16.0,88,0.00,,,0.00,Wunderground v.1.15,2013-12-22 03:14:00,
2013-12-21 21:19:00,14.9,12.0,29.90,NNE,32,11.0,21.0,88,0.00,,,0.00,Wunderground v.1.15,2013-12-22 03:19:00,
2013-12-21 21:24:00,14.9,12.0,29.90,North,351,9.0,15.0,88,0.00,,,0.00,Wunderground v.1.15,2013-12-22 03:24:00,
2013-12-21 21:29:00,15.1,12.2,29.90,NNE,22,13.0,16.0,88,0.00,,,0.00,Wunderground v.1.15,2013-12-22 03:29:00,
2013-12-21 21:34:00,14.8,11.9,29.91,North,351,14.0,19.0,88,0.00,,,0.00,Wunderground v.1.15,2013-12-22 03:34:00,
2013-12-21 21:39:00,14.6,11.7,29.91,NNE,33,11.0,19.0,88,0.00,,,0.00,Wunderground v.1.15,2013-12-22 03:39:00,
2013-12-21 21:44:00,14.6,11.7,29.91,NNE,20,12.0,19.0,88,0.00,,,0.00,Wunderground v.1.15,2013-12-22 03:44:00,
2013-12-21 21:49:00,14.6,11.7,29.92,NNW,342,13.0,19.0,88,0.00,,,0.00,Wunderground v.1.15,2013-12-22 03:49:00,
2013-12-21 21:54:00,14.6,11.7,29.92,North,11,11.0,16.0,88,0.00,,,0.00,Wunderground v.1.15,2013-12-22 03:54:00,
2013-12-21 22:00:00,14.4,11.5,29.92,North,351,11.0,12.0,88,0.00,,,0.00,Wunderground v.1.15,2013-12-22 04:00:00,
2013-12-21 22:05:00,14.4,11.5,29.92,North,360,15.0,15.0,88,0.00,,,0.00,Wunderground v.1.15,2013-12-22 04:05:00,
2013-12-21 22:10:00,14.3,11.4,29.92,North,350,19.0,19.0,88,0.00,,,0.00,Wunderground v.1.15,2013-12-22 04:10:00,
2013-12-21 22:15:00,14.1,11.2,29.92,North,360,14.0,21.0,88,0.00,,,0.00,Wunderground v.1.15,2013-12-22 04:15:00,
2013-12-21 22:20:00,14.0,10.8,29.92,NNW,344,13.0,16.0,87,0.00,,,0.00,Wunderground v.1.15,2013-12-22 04:20:00,
2013-12-21 22:25:00,13.8,10.6,29.92,North,11,5.0,16.0,87,0.00,,,0.00,Wunderground v.1.15,2013-12-22 04:25:00,
2013-12-21 22:30:00,13.6,10.5,29.92,North,351,9.0,11.0,87,0.00,,,0.00,Wunderground v.1.15,2013-12-22 04:30:00,
2013-12-21 22:35:00,13.1,9.7,29.92,NNE,12,12.0,15.0,86,0.00,,,0.00,Wunderground v.1.15,2013-12-22 04:35:00,
2013-12-21 22:40:00,12.8,9.4,29.92,North,360,8.0,14.0,86,0.00,,,0.00,Wunderground v.1.15,2013-12-22 04:40:00,
2013-12-21 22:45:00,12.6,9.5,29.92,North,350,12.0,18.0,87,0.00,,,0.00,Wunderground v.1.15,2013-12-22 04:45:00,
2013-12-21 22:50:00,12.4,9.0,29.92,North,351,15.0,15.0,86,0.00,,,0.00,Wunderground v.1.15,2013-12-22 04:50:00,
2013-12-21 22:55:00,12.3,8.9,29.92,NNE,22,16.0,20.0,86,0.00,,,0.00,Wunderground v.1.15,2013-12-22 04:55:00,
2013-12-21 23:00:00,12.3,8.9,29.92,North,350,10.0,13.0,86,0.00,,,0.00,Wunderground v.1.15,2013-12-22 05:00:00,
2013-12-21 23:01:00,12.3,8.9,29.92,North,360,7.0,13.0,86,0.00,,,0.00,Wunderground v.1.15,2013-12-22 05:01:00,
2013-12-21 23:02:00,12.3,8.9,29.92,North,5,11.0,13.0,86,0.00,,,0.00,Wunderground v.1.15,2013-12-22 05:02:00,
2013-12-21 23:07:00,12.1,8.7,29.92,North,9,11.0,15.0,86,0.00,,,0.00,Wunderground v.1.15,2013-12-22 05:07:00,
2013-12-21 23:12:00,12.1,8.7,29.92,NE,37,9.0,15.0,86,0.00,,,0.00,Wunderground v.1.15,2013-12-22 05:12:00,
2013-12-21 23:17:00,12.1,8.7,29.92,NNW,337,10.0,15.0,86,0.00,,,0.00,Wunderground v.1.15,2013-12-22 05:17:00,
2013-12-21 23:22:00,11.9,8.5,29.92,NNW,339,12.0,16.0,86,0.00,,,0.00,Wunderground v.1.15,2013-12-22 05:22:00,
2013-12-21 23:27:00,11.9,8.5,29.92,NNW,347,10.0,16.0,86,0.00,,,0.00,Wunderground v.1.15,2013-12-22 05:27:00,
2013-12-21 23:32:00,11.6,8.2,29.92,North,360,10.0,15.0,86,0.00,,,0.00,Wunderground v.1.15,2013-12-22 05:32:00,
2013-12-21 23:37:00,11.6,8.2,29.92,North,360,6.0,16.0,86,0.00,,,0.00,Wunderground v.1.15,2013-12-22 05:37:00,
2013-12-21 23:42:00,11.6,8.2,29.92,North,351,14.0,14.0,86,0.00,,,0.00,Wunderground v.1.15,2013-12-22 05:42:00,
2013-12-21 23:47:00,11.4,7.8,29.92,North,360,8.0,16.0,85,0.00,,,0.00,Wunderground v.1.15,2013-12-22 05:47:00,
2013-12-21 23:52:00,11.4,7.8,29.92,NNW,341,12.0,12.0,85,0.00,,,0.00,Wunderground v.1.15,2013-12-22 05:52:00,
2013-12-21 23:57:00,11.2,7.6,29.92,North,351,12.0,16.0,85,0.00,,,0.00,Wunderground v.1.15,2013-12-22 05:57:00,